Location: Champs
(48.8539°N, 2.6040°E)
Time: 12:25:40
(UTC+00:00)

Cosmos 2084 - Pass Details

Date: 26 October 2021
Orbit: 524 x 657 km, 62.8° (Epoch: 06 December)

Event Time Altitude Azimuth Distance (km) Brightness Sun altitude
Exits shadow 04:10:36 71° 205° (SSW) 640 3.4 -23.0°
Drops below altitude 10° 04:14:53 10° 146° (SSE) 1,984 6.5 -22.3°
Sets 04:17:12 0° 145° (SE) 2,907 7.4 -21.9°
